Terug naar catalogus

FLOCK 4Q 7

ActiefWetenschapSSO
NORAD 58318·PAYLOAD·🇺🇸 United States

Gelanceerd Nov 11, 2023 vanaf Vandenberg Space Force Base

Loading…

Volgende Passages (komende 24 uur)

TLE

VersSource: Space-Track

Epoch: Sep 14, 2026, 21:42 UTC

1 58318U 23174BQ  26257.90437341  .00032124  00000-0  35857-3 0  9998
2 58318  97.3891 352.8146 0004204 178.2343 181.8930 15.62723030159724

Volg FLOCK 4Q 7 in realtime met AllMySat

Download on the App Store